Location: *
(51.8167°N, 12.5000°E)
Time: 02:26:23
(UTC+00:00)

Resurs 1-3 - Pass Details

Date: 16 September 2019
Orbit: 630 x 632 km, 98.0° (Epoch: 22 October)

Event Time Altitude Azimuth Distance (km) Brightness Sun altitude
Exits shadow 18:18:22 10° 126° (SE) 1,998 5.6 -9.2°
Maximum altitude 18:22:12 32° 64° (ENE) 1,099 4.5 -9.8°
Drops below altitude 10° 18:26:06 10° 2° (N) 2,028 6.4 -10.3°
Sets 18:28:29 0° 353° (N) 2,941 7.4 -10.7°
